Zurück zum Katalog

YAOGAN 30

AktivMilitärSSO
NORAD 41473·PAYLOAD·🇨🇳 China

Gestartet May 15, 2016 von Jiuquan Satellite Launch Center

Loading…

Nächste Überflüge (nächste 24 Stunden)

TLE

AktuellSource: Space-Track

Epoche: Sep 14, 2026, 14:57 UTC

1 41473U 16029A   26257.62334821  .00000078  00000-0  18589-4 0  9998
2 41473  97.8925 305.5438 0014600 306.8291  53.1579 14.76240498556864

Verfolge YAOGAN 30 in Echtzeit mit AllMySat

Download on the App Store